Regional Weather Roundup
Issued by NWS

Home | Current Version | Previous Version | Text Only | Print | Product List | Glossary Off
Versions: 1 2 3 4 5 6 7 8 9 10 11 12 13 14 15 16 17 18 19 20 21 22 23 24 25 26 27 28 29 30 31 32 33 34 35 36 37 38 39 40 41 42 43 44 45 46 47 48 49 50

000
ASUS43 KMPX 211010
RWRMN
WEATHER ROUNDUP FOR MINNESOTA
NATIONAL WEATHER SERVICE TWIN CITIES/CHANHASSEN MN
500 AM CDT THU SEP 21 2017


NOTE: "FAIR" INDICATES FEW OR NO CLOUDS BELOW 12,000 FEET WITH NO
SIGNIFICANT WEATHER AND/OR OBSTRUCTIONS TO VISIBILITY. N/A MEANS
CURRENT SKY AND/OR WEATHER CONDITIONS ARE NOT AVAILABLE.

MNZ060>063-068>070-211100-
   Twin Cities Metro

CITY           SKY/WX    TMP DP  RH WIND       PRES   REMARKS
TWIN CITIES    CLEAR     56  51  84 E3        29.99S
ST PAUL        CLEAR     52  50  93 VRB5      30.00S FOG
CRYSTAL        CLEAR     48  45  89 CALM      29.98R FOG
BLAINE         CLEAR     46  46 100 CALM      29.99S FOG
LAKEVILLE      CLEAR     46  46 100 CALM      30.00R
EDEN PRAIRIE   CLEAR     52  49  89 E3        29.98R
SOUTH ST PAUL  CLEAR     51  51  97 CALM      29.99S
LAKE ELMO      FAIR      46  46 100 CALM      30.01S
$$
MNZ001>005-007-008-013>017-022>024-027-028-211100-
   Northwest Minnesota

CITY           SKY/WX    TMP DP  RH WIND       PRES   REMARKS
BEMIDJI        PTCLDY    45  42  88 CALM      29.93F
HALLOCK        CLOUDY    52  45  76 SE12      29.79F
ROSEAU         CLEAR     54  45  71 S13       29.85F
WARROAD        CLEAR     52  45  76 S8        29.88S
THIEF RVR FALL CLEAR     53  43  68 SE10      29.87F
CROOKSTON      CLEAR     55  45  67 S15       29.84S
FOSSTON        CLOUDY    54  45  71 SE10      29.90S
DETROIT LAKES  CLEAR     52  46  82 SE8       29.92F
MOORHEAD       MOCLDY    55  46  71 SE9       29.86F
PARK RAPIDS    CLEAR     49  43  80 SE10      29.95S
MAHNOMEN       FAIR      53  45  74 SE8       29.90S
$$
MNZ006-009>011-018-025>026-211100-
   North Central Minnesota

CITY           SKY/WX    TMP DP  RH WIND       PRES   REMARKS
BAUDETTE       CLEAR     48  43  82 S9        29.91F
FLAG ISLAND    CLEAR     59  50  72 S13       29.86S
INTL FALLS     CLOUDY    42  39  89 SE5       29.95F
WASKISH        CLOUDY    52  46  82 SE6       29.93S
BIG FORK       PTCLDY    39  39 100 CALM      29.97S
LONGVILLE      CLEAR     39  39 100 CALM      29.97F
GRAND RAPIDS   CLEAR     44  42  93 SE3       30.01R
CRANE LAKE     CLOUDY    39  39 100 CALM      30.01F
ORR            CLOUDY    43  39  87 CALM      29.96F
COOK           CLEAR     39  39 100 E3        30.00R
WALKER         FAIR      53  44  70 SE10      29.95F
$$
MNZ012-019>021-037-211100-
   Northeast Minnesota

CITY           SKY/WX    TMP DP  RH WIND       PRES   REMARKS
DULUTH         CLEAR     44  42  93 CALM      30.01F
ELY            CLEAR     37  37 100 CALM      30.01F
HIBBING        CLEAR     35  35 100 NW3       30.01R FOG
EVELETH        CLEAR     42  40  90 CALM      30.02F
DULUTH HARBOR  CLEAR     50  48  93 CALM      30.02S
TWO HARBORS    CLEAR     45  39  81 CALM      30.00F
SILVER BAY     CLEAR     39  39 100 CALM      30.01F
GRAND MARAIS     N/A     48  46  93 VRB3      30.02R
G MARAIS ARPRT   N/A     39  36  87 CALM      30.04S
$$
MNZ029>031-032-039>041-046>048-054>057-064-211100-
   West Central Minnesota

CITY           SKY/WX    TMP DP  RH WIND       PRES   REMARKS
FERGUS FALLS   CLEAR     59  46  63 SE14      29.89F
WHEATON        CLEAR     50  46  87 SE9       29.91S
MORRIS         CLEAR     54  48  82 SE10      29.90F
ALEXANDRIA     CLEAR     53  46  77 SE9       29.96S
ELBOW LAKE     FAIR      56  48  75 SE12G17   29.91F
WADENA         CLEAR     48  45  87 SE6       29.95S
GLENWOOD       CLEAR     52  46  82 SE7       29.96S
APPLETON       CLEAR     54  46  76 SE8       29.91F
BENSON         CLEAR     55  46  71 SE8       29.94F
ORTONVILLE     CLEAR     50  46  87 NE7       29.91S
MADISON        CLEAR     52  52 100 SE6       29.92S
WILLMAR        FAIR      54  48  82 E9        29.96F
$$
MNZ033>034-036-042>043-049>051-058-059-211100-
   Central Minnesota

CITY           SKY/WX    TMP DP  RH WIND       PRES   REMARKS
ST CLOUD       CLEAR     43  43 100 CALM      29.99S
SAUK CENTRE    FAIR      48  45  88 E6        29.97F
PAYNESVILLE    CLEAR     53  47  82 E7        29.97F
AITKIN         CLEAR     36  34  93 CALM      29.98S FOG
PINE RIVER     CLEAR     43  41  93 CALM      30.01S
BRAINERD       CLEAR     44  43  96 S3        29.98F
LITTLE FALLS   CLEAR     45  39  81 CALM      29.99S
LITCHFIELD     CLEAR     52  48  87 E5        29.98S
BUFFALO        CLEAR     48  44  87 CALM      30.00S
MAPLE LAKE     CLEAR     46  46  99 CALM      30.00S
HUTCHINSON     CLEAR     51  48  89 E6        29.99S
$$
MNZ037-044-045-052-053-211100-
   East Central Minnesota

CITY           SKY/WX    TMP DP  RH WIND       PRES   REMARKS
PRINCETON      CLEAR     43  43 100 CALM      30.00R FOG
MORA           CLEAR     41  39  93 CALM      30.02R FOG
CAMBRIDGE      CLEAR     46  45  93 CALM      30.00S
RUSH CITY      CLEAR     42  41  97 E3        30.00F
MOOSE LAKE     FOG       39  37  93 CALM      29.99F VSB 1/2
HINCKLEY       FAIR      41  41 100 CALM      30.00F
CLOQUET        CLEAR     41  39  93 CALM      30.00F
MCGREGOR       CLEAR     39  37  93 CALM      30.00R
$$
MNZ071>073-080-081-089-090-097-098-211100-
   Southwest Minnesota

CITY           SKY/WX    TMP DP  RH WIND       PRES   REMARKS
MONTEVIDEO     CLEAR     50  46  87 S8        29.93S
GRANITE FALLS  CLEAR     53  48  83 SE7       29.95S
CANBY          CLEAR     51  47  87 E7        29.93S
MARSHALL       CLEAR     52  47  83 S9        29.94F
REDWOOD FALLS  CLEAR     54  46  74 SE8       29.95S
OLIVIA         CLEAR     54  46  76 E12G17    29.94F
PIPESTONE      CLEAR     52  45  76 SE5       29.93S
WINDOM         CLEAR     55  46  71 E7        29.96S
WORTHINGTON    CLEAR     50  47  89 E6        29.96S
JACKSON        CLEAR     50  45  81 CALM      29.97S
TRACY          CLEAR     53  49  86 S7        29.95S
SLAYTON        CLEAR     48  45  90 SE7       29.96S
$$
MNZ065>067-074>077-082>085-091>093-211100-
   South Central Minnesota

CITY           SKY/WX    TMP DP  RH WIND       PRES   REMARKS
MANKATO        CLEAR     57  49  74 E7        29.98S
NEW ULM        CLEAR     54  48  82 E6        29.96F
ST JAMES       CLEAR     50  46  87 E6        29.98S
FAIRMONT       CLEAR     53  48  83 E3        29.97S
GLENCOE        CLEAR     50  48  93 E5        29.98S
FARIBAULT      CLEAR     46  46 100 CALM      29.99S
OWATONNA       CLEAR     48  45  87 CALM      29.99S
WASECA         CLEAR     52  48  87 NE3       30.00S
ALBERT LEA     CLEAR     55  52  88 NE3       29.98S
$$
MNZ078>079-086>088-094>096-211100-
   Southeast Minnesota

CITY           SKY/WX    TMP DP  RH WIND       PRES   REMARKS
ROCHESTER      CLEAR     54  50  86 NE7       30.00S
RED WING       CLEAR     48  46  93 N3        29.99R
STANTON        CLEAR     48  46  95 CALM      29.99R
DODGE CENTER   CLEAR     50  48  93 E6        29.99F
WINONA         FOG       55  55 100 CALM      29.99S VSB 1
AUSTIN         CLEAR     54  48  82 NE5       29.98F
PRESTON        CLEAR     53  50  91 N6        30.00R
$$
ABBREVIATIONS USED IN REMARKS
   TC - TEMPERATURES IN CELSIUS
  WCI - WIND CHILL INDEX
   HX - HEAT INDEX
  VSB - VISIBILITY
$$




USA.gov is the U.S. government's official web portal to all federal, state and local government web resources and services.